Regional Weather Roundup
Issued by NWS

Home | Current Version | Previous Version | Graphics & Text | Print | Product List | Glossary On
Versions: 1 2 3 4 5 6 7 8 9 10 11 12 13 14 15 16 17 18 19 20 21 22 23 24 25 26 27 28 29 30 31 32 33 34 35 36 37 38 39 40 41 42 43 44 45 46 47 48 49 50
000
ASUS43 KDTX 221110
RWRMI
MICHIGAN HOURLY REGIONAL WEATHER ROUNDUP
NATIONAL WEATHER SERVICE DETROIT/PONTIAC MI
700 AM EDT FRI AUG 22 2014

NOTE: "FAIR" INDICATES FEW OR NO CLOUDS BELOW 12,000 FEET WITH NO
SIGNIFICANT WEATHER AND/OR OBSTRUCTION TO VISIBILITY.

MIZ047>049-052>055-059>063-066>070-074>076-081>083-221200-
SOUTHEAST LOWER MICHIGAN

CITY           SKY/WX    TMP DP  RH WIND       PRES   REMARKS
ADRIAN         FOG       70  70 100 SW3       29.99R VSB 1/2
ALMA           CLOUDY    65  64  96 SE3       29.97S FOG
ANN ARBOR      CLOUDY    71  68  90 CALM      29.99R FOG
BAD AXE        FOG       60  60 100 CALM      30.00R VSB 3/4
DETROIT CITY   CLOUDY    69  65  86 CALM      29.98R
DETROIT        CLOUDY    70  68  93 CALM      29.98R FOG
FLINT          CLOUDY    69  63  81 E8        29.98R
GROSSE ILE     CLOUDY    70  66  88 CALM      29.97R FOG
HILLSDALE      CLOUDY    70  70 100 CALM      29.99R FOG
HOWELL         CLOUDY    69  68  98 SE5       29.99R FOG

CITY           SKY/WX    TMP DP  RH WIND       PRES   REMARKS
JACKSON        FOG       71  69  93 S3        29.98R VSB 3/4
LAMBERTVILLE   CLOUDY    72  70  94 SW3       29.99R FOG
LANSING        FOG       70  69  97 E5        29.98R VSB 3/4
LAPEER         NOT AVBL
MASON          FOG       69  68  98 CALM      29.98R VSB 1/4
MONROE         CLOUDY    72  70  94 CALM      29.96S FOG
MT. CLEMENS    MOCLDY    67  63  88 NW3       29.98R
PONTIAC        CLOUDY    68  63  84 CALM      29.98R
PORT HOPE        N/A     65  62  90 E9        29.98R
PORT HURON     CLOUDY    66  64  94 N3        29.99R
TRI CITIES     CLEAR     65  63  93 E5        29.98R
YPSILANTI      CLOUDY    73  67  81 CALM      29.99R HAZE
$$
MIZ043>046-050>051-056>058-064>065-071>073-077>080-221200-
SOUTHWEST LOWER MICHIGAN

CITY           SKY/WX    TMP DP  RH WIND       PRES   REMARKS
BATTLE CREEK   FOG       71  68  90 SE3       29.98R VSB 1/2
BENTON HARBOR  MOCLDY    67  66  97 CALM      29.94R FOG
BIG RAPIDS     CLOUDY    66  66  99 W6        29.97R
COLDWATER      CLOUDY    69  68  96 CALM      29.97R FOG
HOLLAND        FOG       71  69  93 E5        29.96R VSB 1/2
GRAND RAPIDS   FOG       70  70 100 E5        29.96R VSB 1/4
KALAMAZOO      FOG       69  68  96 E3        29.95F VSB 1
MARSHALL       CLOUDY    69  68  99 SE3       29.97S FOG
MUSKEGON       CLOUDY    71  68  90 SE5       29.95R FOG
$$
MIZ016>042-221200-
NORTHERN LOWER MICHIGAN

CITY           SKY/WX    TMP DP  RH WIND       PRES   REMARKS
ALPENA         FOG       59  58  96 CALM      29.99R VSB 1/2
BEAVER ISLAND  CLOUDY    65  64  97 E6        29.98R
BELLAIRE       CLOUDY    65  64  94 CALM      29.96R
CADILLAC       CLOUDY    65  64  94 CALM      29.98R
CHARLEVOIX     CLOUDY    67  67  99 CALM      30.00R
FRANKFORT      CLOUDY    69  65  89 CALM      29.96R
GAYLORD        MOCLDY    64  62  93 CALM      30.00R
GRAYLING       MOCLDY    63  63 100 CALM      30.00R
HARBOR SPRINGS CLOUDY    65  64  94 NE6       29.98R
HOUGHTON LAKE  FOG       61  61 100 E6        30.00R VSB 1/2
MANISTEE       CLOUDY    66  64  94 E3        29.97R
OSCODA         CLOUDY    60  60  99 CALM      29.98S
PELLSTON       CLOUDY    62  61  96 CALM      29.99R
TRAVERSE CITY  MOCLDY    67  63  87 CALM      29.95R
$$
MIZ007>008-015-221200-
EASTERN UPPER MICHIGAN

CITY           SKY/WX    TMP DP  RH WIND       PRES   REMARKS
KINROSS        CLOUDY    57  55  94 CALM      29.99R VSB 1/4
MACKINAC ISLAN FOG       60  60 100 E6        29.98R VSB 1/4
NEWBERRY       FOG       54  54 100 CALM      29.98R VSB<1/4
S. S. MARIE    FOG       60  59  96 CALM      29.98R VSB 1/4
$$
MIZ004>006-011>014-085-221200-
CENTRAL UPPER MICHIGAN

CITY           SKY/WX    TMP DP  RH WIND       PRES   REMARKS
MANISTIQUE     CLOUDY    63  61  94 CALM      29.96R
ESCANABA       MOCLDY    64  59  82 E3        29.96R
MENOMINEE      CLOUDY    66  63  88 E5        29.94R
SAWYER-GWINN   CLOUDY    64  59  82 CALM      29.97R
$$
MIZ001>003-009>011-084-221200-
WESTERN UPPER MICHIGAN

CITY           SKY/WX    TMP DP  RH WIND       PRES   REMARKS
IRON MOUNTAIN  CLOUDY    64  61  90 W3        29.96R
HOUGHTON       CLOUDY    61  59  93 E8        29.96R
COPPER HARBOR    N/A     60  58  92 CALM      29.96R
IRONWOOD       CLOUDY    66  64  94 CALM      29.92R
$$

ABBREVIATIONS USED IN REMARKS
   TC - TEMPERATURE IN CELSIUS
  WCI - WIND CHILL INDEX
   HX - HEAT INDEX
  VSB - VISIBILITY




USA.gov is the U.S. government's official web portal to all federal, state and local government web resources and services.